Location: Bauerbach
(50.4985°N, 10.3912°E)
Time: 14:41:56
(UTC+00:00)

SL-8 Rocket - Pass Details

Date: 13 January 2026
Orbit: 955 x 990 km, 82.9° (Epoch: 9 February)

Event Time Altitude Azimuth Distance (km) Brightness Sun altitude
Rises 06:24:30 0° 190° (S) 3,690 7.2 -7.8°
Reaches altitude 10° 06:27:01 10° 191° (S) 2,744 6.5 -7.4°
Maximum altitude 06:33:20 82° 279° (W) 1,001 4.0 -6.5°
Drops below altitude 10° 06:39:40 10° 8° (N) 2,746 6.2 -5.6°
Sets 06:42:11 0° 10° (N) 3,693 6.8 -5.3°
